Weather observations for the past three days for
Winchester Municipal Airport
Metric (Imperial)
Date Time (cdt) Wind (kph) Vis. (km) Weather Sky Cond. Temperature (ºC) Relative Humidity Wind Chill (°C) Heat Index (°C) Pressure Precipitation (cm)
Air Dwpt 6 hour altimeter (cm) sea level (mb) 1 hr 3 hr 6 hr
Max. Min.
05 00:15 S 6 16.09 Fair CLR 15 9 68% 76.02 0.0
04 23:55 S 9 16.09 Fair CLR 15 9 68% 76 0.0
04 23:35 S 6 16.09 Fair CLR 15 10 72% 76 0.0
04 23:15 S 7 16.09 Fair CLR 15 10 72% 76 0.0
04 22:55 S 7 16.09 A Few Clouds FEW065 16 9 63% 76 0.0
04 22:35 S 7 16.09 A Few Clouds FEW065 16 9 63% 76.02 0.0
04 22:15 S 7 16.09 Partly Cloudy SCT065 16 9 63% 76 0.0
04 21:55 S 9 16.09 Fair CLR 16 9 63% 76 0.0
04 21:35 S 9 16.09 Fair CLR 17 9 60% 76 0.0
04 21:15 SE 7 16.09 A Few Clouds FEW060 18 9 56% 76 0.0
04 20:55 S 13 16.09 A Few Clouds FEW065 18 9 56% 76 0.0
04 20:35 S 11 16.09 Fair CLR 19 9 52% 75.97 0.0
04 20:15 S 9 16.09 Fair CLR 20 9 49% 75.97 0.0
04 19:55 S 7 16.09 Fair CLR 21 9 46% 75.97 0.0
04 19:35 S 9 16.09 Fair CLR 21 9 46% 75.97 0.0
04 19:15 S 11 16.09 Fair CLR 22 9 44% 75.95 0.0
04 18:55 S 11 16.09 Fair CLR 23 8 38% 75.95 0.0
04 18:35 S 17 G 30 16.09 Fair CLR 24 8 36% 25 75.92 0.0
04 18:15 SW 17 G 28 16.09 Fair CLR 24 9 39% 25 75.92 0.0
04 17:55 S 20 16.09 Fair CLR 24 9 39% 25 75.95 0.0
04 17:35 SW 22 16.09 Fair CLR 24 9 39% 25 75.95 0.0
04 17:15 S 19 G 30 16.09 Fair CLR 24 10 41% 25 75.95 0.0
04 16:55 SW 24 16.09 Fair CLR 25 10 39% 26 75.95 0.0
04 16:35 S 15 G 24 16.09 Fair CLR 25 10 39% 26 75.95 0.0
04 16:15 SW 24 G 35 16.09 Fair CLR 25 9 36% 26 75.95 0.0
04 15:55 SW 24 16.09 Fair CLR 25 10 39% 26 75.95 0.0
04 15:35 S 20 16.09 A Few Clouds FEW060 25 10 39% 26 75.95 0.0
04 15:15 SW 9 G 28 16.09 Partly Cloudy SCT060 25 10 39% 26 75.97 0.0
04 14:35 S 19 16.09 A Few Clouds FEW060 25 11 42% 26 76.02 0.0
04 14:15 SW 20 G 30 16.09 Fair CLR 25 10 39% 26 76.05 0.0
04 13:55 W 17 16.09 Fair CLR 24 10 41% 25 76.07 0.0
04 13:35 SW 19 16.09 Fair CLR 24 11 44% 25 76.07 0.0
04 13:15 SW 19 G 30 16.09 Fair CLR 24 11 44% 25 76.1 0.0
04 12:55 W 17 G 31 16.09 Fair CLR 24 10 41% 25 76.12 0.0
04 12:35 SW 19 G 30 16.09 Fair CLR 24 11 44% 25 76.12 0.0
04 12:15 W 17 G 31 16.09 Fair CLR 23 10 44% 76.15 0.0
04 11:55 W 15 G 31 16.09 Fair CLR 23 10 44% 76.17 0.0
04 11:35 SW 22 16.09 Fair CLR 22 10 47% 76.2 0.0
04 11:15 SW 20 G 33 16.09 Fair CLR 22 10 47% 76.23 0.0
04 10:55 W 20 G 35 16.09 Fair CLR 22 9 44% 76.25 0.0
04 10:35 SW 20 G 30 16.09 Fair CLR 22 9 44% 76.25 0.0
04 10:15 W 17 G 31 16.09 Fair CLR 21 9 46% 76.23 0.0
04 09:55 SW 26 16.09 Fair CLR 21 8 43% 76.25 0.0
04 09:35 SW 20 16.09 Fair CLR 20 8 46% 76.25 0.0
04 09:15 SW 13 16.09 Fair CLR 20 8 46% 76.28 0.0
04 08:55 SW 13 16.09 Fair CLR 19 8 49% 76.28 0.0
04 08:35 S 19 16.09 Fair CLR 19 8 49% 76.28 0.0
04 08:15 Vrbl 7 16.09 Fair CLR 17 8 56% 76.28 0.0
04 07:55 E 9 16.09 Fair CLR 15 8 63% 76.28 0.0
04 07:35 SE 9 16.09 Fair CLR 14 8 67% 76.28 0.0
04 07:15 SE 11 16.09 Fair CLR 13 7 67% 76.28 0.0
04 06:55 E 9 16.09 Fair CLR 12 7 72% 76.25 0.0
04 06:35 E 9 16.09 Fair CLR 11 7 77% 76.25 0.0
04 06:15 E 9 16.09 Fair CLR 9 6 82% 8 76.23 0.0
04 05:55 Calm 16.09 Fair CLR 9 6 82% 76.23 0.0
04 05:35 SE 6 16.09 Fair CLR 10 6 76% 76.2 0.0
04 05:15 Calm 16.09 Fair CLR 10 5 71% 76.2 0.0
04 04:55 Calm 16.09 Fair CLR 10 6 76% 76.23 0.0
04 04:35 Calm 16.09 Fair CLR 10 5 71% 76.23 0.0
04 04:15 E 9 16.09 Fair CLR 10 6 76% 9 76.23 0.0
04 03:55 SE 7 16.09 Fair CLR 10 5 71% 9 76.23 0.0
04 03:35 E 6 16.09 Fair CLR 10 5 71% 76.23 0.0
04 03:15 Calm 16.09 Fair CLR 11 5 67% 76.23 0.0
04 02:55 SE 7 16.09 Fair CLR 10 5 71% 9 76.23 0.0
04 02:35 SE 6 16.09 Fair CLR 10 5 71% 76.23 0.0
04 02:15 SE 7 16.09 Fair CLR 10 5 71% 9 76.23 0.0
04 01:55 SE 7 16.09 Fair CLR 11 4 62% 76.25 0.0
04 01:35 SE 9 16.09 Fair CLR 12 4 58% 76.25 0.0
04 01:15 SE 9 16.09 Fair CLR 11 4 62% 76.28 0.0
04 00:35 SE 7 16.09 Fair CLR 10 5 71% 9 76.3 0.0
04 00:10 SE 9 16.09 Fair CLR 11 5 67% 76.3 0.0
03 23:50 SE 11 16.09 Fair CLR 11 5 67% 76.3 0.0
03 23:30 SE 7 16.09 Fair CLR 10 6 76% 9 76.33 0.0
03 23:15 SE 9 16.09 Fair CLR 11 5 67% 76.33 0.0
03 22:50 SE 7 16.09 Fair CLR 10 6 76% 9 76.33 0.0
03 22:35 Calm 16.09 Fair CLR 11 6 72% 76.33 0.0
03 22:15 Calm 16.09 Fair CLR 10 6 76% 76.33 0.0
03 21:55 Calm 16.09 Fair CLR 10 6 76% 76.33 0.0
03 21:35 Calm 16.09 Fair CLR 11 6 72% 76.35 0.0
03 21:15 S 11 16.09 Fair CLR 12 6 67% 76.33 0.0
03 20:55 S 9 16.09 Fair CLR 12 7 72% 76.3 0.0
03 20:35 S 11 16.09 Fair CLR 13 6 63% 76.3 0.0
03 20:15 S 9 16.09 Fair CLR 13 6 63% 76.3 0.0
03 19:55 Calm 16.09 Fair CLR 15 6 55% 76.28 0.0
03 19:35 SW 7 16.09 Fair CLR 16 5 48% 76.28 0.0
03 19:15 SW 9 16.09 Fair CLR 17 4 42% 76.25 0.0
03 18:55 SW 11 16.09 Fair CLR 18 4 40% 76.28 0.0
03 18:35 Calm 16.09 Fair CLR 18 2 34% 76.3 0.0
03 18:15 W 9 16.09 Fair CLR 19 2 32% 76.3 0.0
03 17:55 SW 11 16.09 Fair CLR 19 4 37% 76.33 0.0
03 17:35 W 9 16.09 Fair CLR 19 4 37% 76.33 0.0
03 17:15 Vrbl 11 16.09 Fair CLR 19 4 37% 76.33 0.0
03 16:55 SW 13 16.09 Fair CLR 19 3 35% 76.33 0.0
03 16:35 SW 19 16.09 Fair CLR 19 4 37% 76.33 0.0
03 16:15 SW 17 16.09 Fair CLR 19 3 35% 76.35 0.0
03 15:55 Vrbl 7 16.09 Fair CLR 19 3 35% 76.38 0.0
03 15:35 W 9 G 20 16.09 Fair CLR 19 3 35% 76.4 0.0
03 15:15 Vrbl 9 G 22 16.09 Fair CLR 19 3 35% 76.43 0.0
03 14:55 NW 9 16.09 Fair CLR 18 3 37% 76.45 0.0
03 14:35 W 13 16.09 Fair CLR 18 3 37% 76.48 0.0
03 14:15 Vrbl 9 16.09 Fair CLR 18 2 34% 76.5 0.0
03 13:55 Vrbl 7 16.09 Fair CLR 18 4 40% 76.53 0.0
03 13:35 Calm 16.09 Fair CLR 17 3 39% 76.53 0.0
03 13:15 Calm 16.09 Fair CLR 17 3 39% 76.56 0.0
03 12:55 SW 15 16.09 Fair CLR 17 3 39% 76.56 0.0
03 12:35 Calm 16.09 Fair CLR 16 3 42% 76.58 0.0
03 12:15 SW 9 16.09 Fair CLR 16 3 42% 76.61 0.0
03 11:55 Calm 16.09 Fair CLR 15 2 42% 76.63 0.0
03 11:35 NE 9 16.09 Fair CLR 15 3 45% 76.63 0.0
03 11:15 Calm 16.09 Fair CLR 15 3 45% 76.66 0.0
03 10:55 Calm 16.09 Fair CLR 14 3 48% 76.66 0.0
03 10:35 Vrbl 7 16.09 Fair CLR 14 3 48% 76.68 0.0
03 10:10 Calm 16.09 Fair CLR 13 4 55% 76.66 0.0
03 09:55 Calm 16.09 Fair CLR 13 4 55% 76.66 0.0
03 09:35 Vrbl 7 16.09 Fair CLR 13 6 63% 76.66 0.0
03 09:15 N 6 16.09 Fair CLR 12 8 77% 76.66 0.0
03 08:55 Calm 16.09 Fair CLR 11 9 88% 76.66 0.0
03 08:35 Calm 16.09 A Few Clouds FEW008 10 9 94% 76.66 0.0
03 08:15 Calm 16.09 Partly Cloudy SCT008 9 9 100% 76.66 0.0
03 07:55 Calm 16.09 Fair CLR 8 8 100% 76.66 0.0
03 07:35 Calm 14.48 Fair CLR 7 7 100% 76.63 0.0
03 07:15 Calm 11.27 Fair CLR 6 6 100% 76.63 0.0
03 06:55 Calm 11.27 Fair CLR 5 5 100% 76.63 0.0
03 06:35 Calm 11.27 Fair CLR 4 4 100% 76.61 0.0
03 06:15 Calm 0.80 Fog/Mist VV005 4 4 100% 76.58 0.0
03 05:55 Calm 2.82 Fog/Mist CLR 4 4 100% 76.58 0.0
03 05:35 E 6 1.21 Fog/Mist VV005 4 4 100% 76.58 0.0
03 05:15 Calm 16.09 Fair CLR 4 4 100% 76.56 0.0
03 04:55 Calm 14.48 Fair CLR 5 5 100% 76.56 0.0
03 04:35 Calm 16.09 Fair CLR 5 5 100% 76.56 0.0
03 04:15 Calm 16.09 Fair CLR 5 5 100% 76.53 0.0
03 03:55 Calm 16.09 A Few Clouds FEW042 5 5 100% 76.53 0.0
03 03:35 Calm 16.09 A Few Clouds FEW041 5 5 100% 76.53 0.0
03 03:15 Calm 16.09 Fair CLR 5 5 100% 76.5 0.0
03 02:55 Calm 3.22 Fog/Mist CLR 5 5 100% 76.5 0.0
03 02:35 Calm 12.87 Fair CLR 6 6 100% 76.5 0.0
03 02:15 Calm 16.09 Fair CLR 6 6 100% 76.48 0.0
03 01:55 Calm 16.09 Fair CLR 6 6 100% 76.48 0.0
03 01:35 Calm 16.09 Fair CLR 7 7 100% 76.48 0.0
03 01:15 Calm 16.09 Fair CLR 7 7 100% 76.48 0.0
03 00:55 S 6 16.09 Fair CLR 7 7 100% 76.48 0.0
03 00:35 Calm 16.09 Fair CLR 8 7 93% 76.48 0.0
03 00:15 Calm 16.09 Fair CLR 8 7 93% 76.45 0.0
02 23:55 Calm 16.09 Fair CLR 9 7 87% 76.45 0.0
02 23:35 NW 7 16.09 Fair CLR 9 7 87% 8 76.45 0.0
02 23:15 Calm 16.09 A Few Clouds FEW060 9 7 87% 76.43 0.0
02 22:55 Calm 16.09 Fair CLR 10 6 76% 76.43 0.0
02 22:35 NW 6 16.09 Fair CLR 10 6 76% 76.43 0.0
02 22:15 Calm 16.09 Fair CLR 11 6 72% 76.43 0.0
02 21:55 Calm 16.09 A Few Clouds FEW095 11 6 72% 76.4 0.0
02 21:35 N 9 16.09 Mostly Cloudy SCT065 BKN090 11 6 72% 76.38 0.0
02 21:15 N 13 16.09 Overcast BKN065 OVC075 12 6 67% 76.38 0.0
02 20:55 N 11 16.09 Mostly Cloudy SCT060 BKN070 BKN100 12 6 67% 76.35 0.0
02 20:35 N 17 16.09 A Few Clouds FEW060 FEW110 12 6 67% 76.33 0.0
02 20:15 N 9 16.09 Partly Cloudy SCT100 13 5 59% 76.3 0.0
02 19:55 N 11 16.09 Overcast SCT080 OVC100 13 5 59% 76.28 0.0
02 19:35 N 11 16.09 Overcast BKN085 OVC100 14 5 55% 76.25 0.0
02 19:15 N 11 16.09 Overcast FEW075 OVC100 14 5 55% 76.25 0.0
02 18:55 N 11 G 20 16.09 Partly Cloudy SCT100 SCT120 15 4 48% 76.23 0.0
02 18:35 N 11 G 22 16.09 Partly Cloudy FEW048 FEW055 SCT120 15 4 48% 76.2 0.0
02 18:15 W 15 G 28 16.09 Mostly Cloudy FEW037 SCT060 BKN075 15 3 45% 76.23 0.0
02 17:55 NW 19 G 31 16.09 Mostly Cloudy BKN075 BKN100 BKN120 17 1 34% 76.17 0.0
02 17:35 Vrbl 9 G 20 16.09 Partly Cloudy FEW080 SCT110 17 1 34% 76.15 0.0
02 17:15 N 17 G 28 16.09 Fair CLR 18 1 32% 76.15 0.0
02 16:55 N 17 G 30 16.09 A Few Clouds FEW095 18 1 32% 76.12 0.0
02 16:35 NW 11 G 28 16.09 Mostly Cloudy FEW075 BKN100 18 1 32% 76.12 0.0
02 16:15 N 19 G 31 16.09 Mostly Cloudy BKN075 BKN090 BKN110 18 1 32% 76.12 0.0
02 15:55 NW 13 G 26 16.09 Partly Cloudy SCT080 SCT090 SCT110 19 1 30% 76.12 0.0
02 15:35 NW 15 G 28 16.09 Fair CLR 18 0 30% 76.15 0.0
02 15:15 NW 17 G 31 16.09 A Few Clouds FEW090 19 0 28% 76.15 0.0
02 14:55 Vrbl 9 G 30 16.09 Partly Cloudy FEW080 SCT090 18 0 30% 76.17 0.0
02 14:35 N 20 16.09 Mostly Cloudy BKN080 BKN090 18 1 32% 76.17 0.0
02 14:15 NW 11 G 26 16.09 Partly Cloudy SCT075 SCT090 18 0 30% 76.2 0.0
02 13:55 NW 19 G 39 16.09 A Few Clouds FEW075 18 0 30% 76.2 0.0
02 13:35 NE 15 G 28 16.09 Partly Cloudy SCT075 17 0 32% 76.2 0.0
02 13:15 NW 15 G 28 16.09 A Few Clouds FEW075 18 0 30% 76.2 0.0
02 12:55 N 7 G 30 16.09 Fair CLR 18 1 32% 76.2 0.0
02 12:35 N 17 G 30 16.09 Fair CLR 17 1 34% 76.23 0.0
02 12:15 NE 15 16.09 Fair CLR 17 1 34% 76.25 0.0
02 11:55 N 22 16.09 Fair CLR 17 0 32% 76.25 0.0
02 11:35 N 20 16.09 Fair CLR 16 1 36% 76.28 0.0
02 11:15 NE 20 G 31 16.09 Fair CLR 16 1 36% 76.28 0.0
02 10:55 N 24 16.09 Fair CLR 15 1 39% 76.28 0.0
02 10:35 N 20 16.09 Fair CLR 15 1 39% 76.28 0.0
02 10:15 NE 19 G 30 16.09 Fair CLR 15 1 39% 76.25 0.0
02 09:55 N 13 G 28 16.09 Fair CLR 15 2 42% 76.25 0.0
02 09:35 N 19 G 33 16.09 Fair CLR 14 2 44% 76.23 0.0
02 09:15 N 20 16.09 Fair CLR 14 3 48% 76.23 0.0
02 08:55 NE 19 16.09 Fair CLR 13 4 55% 76.23 0.0
02 08:35 NE 13 16.09 Fair CLR 13 4 55% 76.23 0.0
02 08:15 N 15 16.09 Fair CLR 12 4 58% 76.23 0.0
02 07:55 N 9 16.09 Fair CLR 11 4 62% 76.23 0.0
02 07:35 N 13 16.09 Fair CLR 10 4 67% 8 76.2 0.0
02 07:15 NE 9 16.09 Fair CLR 9 5 76% 8 76.2 0.0
02 06:55 N 9 16.09 Fair CLR 9 4 71% 8 76.2 0.0
02 06:35 N 9 16.09 Fair CLR 9 4 71% 8 76.17 0.0
02 06:15 N 9 16.09 Fair CLR 9 4 71% 8 76.15 0.0
02 05:55 N 9 16.09 Fair CLR 9 4 71% 8 76.15 0.0
02 05:35 N 9 16.09 Fair CLR 9 4 71% 8 76.12 0.0
02 05:15 N 6 16.09 Fair CLR 10 3 62% 76.1 0.0
02 04:55 N 6 16.09 Fair CLR 10 3 62% 76.12 0.0
02 04:35 Calm 16.09 Fair CLR 10 4 67% 76.15 0.0
02 04:15 Calm 16.09 Fair CLR 10 3 62% 76.12 0.0
02 03:55 NE 7 16.09 Fair CLR 10 3 62% 9 76.12 0.0
02 03:35 NE 7 16.09 Fair CLR 10 3 62% 9 76.12 0.0
02 03:15 N 9 16.09 A Few Clouds FEW049 11 2 54% 76.1 0.0
02 02:55 N 11 16.09 Fair CLR 11 2 54% 76.12 0.0
02 02:35 N 15 16.09 A Few Clouds FEW050 11 2 54% 76.12 0.0
02 02:15 N 19 16.09 Mostly Cloudy BKN050 12 2 51% 76.17 0.0
02 01:55 N 17 16.09 Overcast OVC050 12 2 51% 76.17 0.0
02 01:35 N 15 16.09 Overcast OVC050 12 2 51% 76.23 0.0
02 01:15 N 11 16.09 Overcast OVC050 12 2 51% 76.2 0.0
02 00:55 N 11 16.09 Overcast OVC055 12 2 51% 76.2 0.0
02 00:35 N 11 16.09 Overcast OVC055 12 1 47% 76.2 0.0
Date Time (cdt) Wind (kph) Vis. (km) Weather Sky Cond. Air Dwpt Max. Min. Relative Humidity Wind Chill (°C) Heat Index (°C) altimeter (cm) sea level (mb) 1 hr 3 hr 6 hr
6 hour
Temperature (ºC) Pressure Precipitation (cm)